Dutzow, MO

11:53 PM CST on February 08, 2016 (GMT -0600)
Washington

Weather History for KFYG - October, 2013

Change the Weather History Date:

Saturday, October 5, 2013

  Actual Average (KSTL) Record (KSTL)
Temperature  
Mean Temperature 64 °F 62 °F  
Max Temperature 75 °F 72 °F 92 °F (1938)
Min Temperature 53 °F 52 °F 36 °F (1964)
Degree Days  
Heating Degree Days 1 5  
Month to date heating degree days 22  
Since 1 July heating degree days 63  
Cooling Degree Days 0 2  
Month to date cooling degree days 13  
Year to date cooling degree days 1614  
Growing Degree Days 14 (Base 50)    
Moisture  
Dew Point 65 °F    
Average Humidity 96    
Maximum Humidity 100    
Minimum Humidity 73    
Precipitation  
Precipitation 0.16 in 0.10 in 2.65 in (1910)
Month to date precipitation 0.52  
Year to date precipitation 31.40  
Snow  
Snow 0.00 in 0.00 in 0.00 in (2013)
Month to date snowfall 0.0  
Since 1 July snowfall 0.0  
Since 1 September snowfall 0.0  
Snow Depth -    
Sea Level Pressure  
Sea Level Pressure 29.92 in    
Wind  
Wind Speed - (North)    
Max Wind Speed -    
Max Gust Speed -    
Visibility 9 miles    
Events Rain    
T = Trace of Precipitation, MM = Missing Value Source: NWS Daily Summary

Daily Weather History Graph

Daily Weather History Graph

Search for Another Location

Airport or City:

Trip Planner

Search our weather history database for the weather conditions in past years. The results will help you decide how hot, cold, wet, or windy it might be!

Date:

Astronomy

Oct. 05, 2013 Rise Set
Actual Time 7:03 AM CDT 6:40 PM CDT
Civil Twilight 6:37 AM CDT 7:06 PM CDT
Nautical Twilight 6:06 AM CDT 7:37 PM CDT
Astronomical Twilight 5:35 AM CDT 8:08 PM CDT
Moon 7:42 AM CDT (10/5) 7:00 PM CDT (10/5)
Length of Visible Light 12h 29m
Length of Day
11h 36m
New Moon, 1% of the Moon is Illuminated
Oct 5
New Moon
Oct 11
First Quarter
Oct 18
Full
Oct 26
Last Quarter
Nov 3
New

Hourly Weather History & Observations

Time (CDT) Temp. Dew Point Humidity Pressure Visibility Wind Dir Wind Speed Gust Speed Precip Events Conditions
12:15 AM 73.4 °F 71.6 °F 94% 29.93 in 10.0 mi North - - N/A   Clear
12:35 AM 73.4 °F 71.6 °F 94% 29.93 in 10.0 mi North - - N/A   Clear
12:55 AM 73.4 °F 71.6 °F 94% 29.93 in 10.0 mi North - - N/A   Clear
1:15 AM 73.4 °F 73.4 °F 100% 29.93 in 10.0 mi North - - N/A   Clear
1:35 AM 75.2 °F 73.4 °F 94% 29.93 in 10.0 mi North - - N/A   Clear
1:55 AM 75.2 °F 73.4 °F 94% 29.94 in 10.0 mi North - - N/A   Clear
2:15 AM 73.4 °F 73.4 °F 100% 29.93 in 10.0 mi North - - N/A   Clear
2:35 AM 73.4 °F 73.4 °F 100% 29.92 in 10.0 mi North - - N/A   Clear
2:55 AM 73.4 °F 73.4 °F 100% 29.92 in 10.0 mi North - - N/A   Clear
3:15 AM 73.4 °F 73.4 °F 100% 29.91 in 10.0 mi North - - N/A   Clear
3:35 AM 73.4 °F 73.4 °F 100% 29.91 in 10.0 mi North - - N/A   Clear
3:55 AM 71.6 °F 71.6 °F 100% 29.91 in 10.0 mi North - - N/A   Clear
4:15 AM 71.6 °F 71.6 °F 100% 29.91 in 10.0 mi North - - N/A   Clear
4:35 AM 71.6 °F 71.6 °F 100% 29.91 in 10.0 mi North - - N/A   Clear
4:55 AM 71.6 °F 71.6 °F 100% 29.90 in 10.0 mi North - - N/A   Partly Cloudy
5:15 AM 71.6 °F 71.6 °F 100% 29.90 in 10.0 mi North - - N/A   Partly Cloudy
5:35 AM 71.6 °F 71.6 °F 100% 29.90 in 10.0 mi North - - N/A   Clear
5:55 AM 71.6 °F 71.6 °F 100% 29.90 in 10.0 mi North - - N/A   Clear
6:15 AM 71.6 °F 71.6 °F 100% 29.91 in 10.0 mi North - - N/A   Clear
6:35 AM 71.6 °F 71.6 °F 100% 29.91 in 10.0 mi North - - N/A   Mostly Cloudy
6:55 AM 71.6 °F 71.6 °F 100% 29.90 in 10.0 mi North - - N/A   Overcast
7:15 AM 71.6 °F 71.6 °F 100% 29.90 in 10.0 mi North - - N/A   Overcast
7:35 AM 71.6 °F 71.6 °F 100% 29.91 in 10.0 mi North - - N/A   Mostly Cloudy
7:55 AM 71.6 °F 71.6 °F 100% 29.92 in 10.0 mi North - - N/A   Mostly Cloudy
8:15 AM 71.6 °F 71.6 °F 100% 29.93 in 10.0 mi North - - N/A   Overcast
8:35 AM 73.4 °F 73.4 °F 100% 29.93 in 10.0 mi North - - N/A   Overcast
8:55 AM 73.4 °F 68.0 °F 83% 29.93 in 10.0 mi North - - N/A   Overcast
9:15 AM 73.4 °F 64.4 °F 73% 29.94 in 10.0 mi North - - N/A   Mostly Cloudy
9:35 AM 71.6 °F 64.4 °F 78% 29.94 in 10.0 mi North - - N/A   Mostly Cloudy
9:55 AM 73.4 °F 64.4 °F 73% 29.95 in 10.0 mi North - - N/A   Scattered Clouds
10:15 AM 73.4 °F 64.4 °F 73% 29.96 in 10.0 mi North - - N/A   Scattered Clouds
10:35 AM 71.6 °F 64.4 °F 78% 29.96 in 10.0 mi North - - N/A   Scattered Clouds
10:55 AM 71.6 °F 64.4 °F 78% 29.97 in 10.0 mi North - - N/A   Mostly Cloudy
11:15 AM 71.6 °F 64.4 °F 78% 29.96 in 10.0 mi North - - N/A   Scattered Clouds
11:35 AM 71.6 °F 64.4 °F 78% 29.95 in 10.0 mi North - - N/A Rain Light Rain
11:55 AM 71.6 °F 64.4 °F 78% 29.95 in 10.0 mi North - - N/A   Scattered Clouds
12:15 PM 69.8 °F 66.2 °F 88% 29.95 in 2.0 mi North - - N/A Rain Light Rain
12:35 PM 68.0 °F 68.0 °F 100% 29.95 in 2.5 mi North - - 0.03 in Rain Light Rain
12:55 PM 68.0 °F 68.0 °F 100% 29.93 in 8.0 mi North - - 0.03 in   Clear
1:15 PM 68.0 °F 68.0 °F 100% 29.90 in 10.0 mi North - - N/A   Clear
1:35 PM 68.0 °F 68.0 °F 100% 29.88 in 10.0 mi North - - N/A   Clear
1:55 PM 68.0 °F 68.0 °F 100% 29.86 in 10.0 mi North - - N/A   Clear
2:35 PM 69.8 °F 69.8 °F 100% 29.87 in 10.0 mi North - - N/A   Partly Cloudy
2:55 PM 69.8 °F 69.8 °F 100% 29.89 in 10.0 mi North - - N/A   Mostly Cloudy
3:15 PM 69.8 °F 69.8 °F 100% 29.89 in 8.0 mi North - - N/A Rain Light Rain
3:35 PM 66.2 °F 66.2 °F 100% 29.86 in 10.0 mi North - - N/A   Mostly Cloudy
3:55 PM 66.2 °F 66.2 °F 100% 29.88 in 10.0 mi North - - N/A   Mostly Cloudy
4:15 PM 66.2 °F 66.2 °F 100% 29.91 in 10.0 mi North - - N/A   Overcast
4:35 PM 62.6 °F 62.6 °F 100% 29.90 in 10.0 mi North - - N/A Rain Light Rain
4:55 PM 60.8 °F 60.8 °F 100% 29.90 in 10.0 mi North - - N/A   Overcast
5:15 PM 59.0 °F 59.0 °F 100% 29.90 in 10.0 mi North - - N/A Rain Light Rain
5:35 PM 59.0 °F 59.0 °F 100% 29.92 in 10.0 mi North - - N/A   Overcast
5:55 PM 59.0 °F 59.0 °F 100% 29.92 in 10.0 mi North - - N/A   Overcast
6:15 PM 57.2 °F 57.2 °F 100% 29.92 in 9.0 mi North - - N/A Rain Light Rain
6:35 PM 57.2 °F 57.2 °F 100% 29.92 in 4.0 mi North - - 0.02 in Rain Light Rain
6:55 PM 57.2 °F 57.2 °F 100% 29.93 in 4.0 mi North - - 0.05 in Rain Light Rain
7:15 PM 57.2 °F 57.2 °F 100% 29.94 in 3.0 mi North - - 0.04 in Rain Light Rain
7:35 PM 55.4 °F 55.4 °F 100% 29.92 in 5.0 mi North - - 0.06 in Rain Light Rain
7:55 PM 55.4 °F 55.4 °F 100% 29.93 in 6.0 mi North - - 0.08 in Rain Light Rain
8:15 PM 55.4 °F 55.4 °F 100% 29.92 in 9.0 mi North - - N/A Rain Light Rain
8:35 PM 55.4 °F 55.4 °F 100% 29.93 in 10.0 mi North - - N/A   Overcast
8:55 PM 55.4 °F 55.4 °F 100% 29.92 in 10.0 mi North - - N/A   Overcast
9:15 PM 55.4 °F 55.4 °F 100% 29.93 in 10.0 mi North - - N/A   Overcast
9:35 PM 55.4 °F 55.4 °F 100% 29.93 in 10.0 mi North - - N/A   Overcast
9:55 PM 55.4 °F 55.4 °F 100% 29.93 in 10.0 mi North - - N/A   Overcast
10:15 PM 55.4 °F 55.4 °F 100% 29.94 in 10.0 mi North - - N/A   Overcast
10:35 PM 55.4 °F 55.4 °F 100% 29.94 in 10.0 mi North - - N/A   Overcast
10:55 PM 55.4 °F 55.4 °F 100% 29.93 in 10.0 mi North - - N/A   Mostly Cloudy
11:15 PM 53.6 °F 53.6 °F 100% 29.93 in 10.0 mi North - - N/A   Clear
11:35 PM 53.6 °F 53.6 °F 100% 29.93 in 10.0 mi North - - N/A   Partly Cloudy
11:55 PM 53.6 °F 53.6 °F 100% 29.92 in 10.0 mi North - - N/A   Partly Cloudy